Temperature
2 2 1 -0 -1 -1 -1 -0 -0 -1 -1 -2 -3 -3 -4 -5 -5 -6 -7 -7 -8 -9 -9 -10 -10 -10 -11 -11 -10 -10 -10 -10 -10 -9 -7 -4 -3 -3 -4 -3 -3 -2 -1
2 1 0 -1 -1 -1 -0 -0 -1 -2 -3 -4 -4 -5 -5 -5 -6 -7 -7 -8 -9 -9 -10 -11 -11 -11 -12 -11 -11 -11 -11 -11 -11 -11 -11 -9 -7 -5 -4 -4 -4 -3 -2
2 1 -0 -1 -1 -1 -1 -1 -2 -3 -3 -4 -5 -5 -5 -5 -6 -7 -8 -9 -10 -10 -11 -11 -12 -12 -12 -13 -12 -12 -12 -12 -12 -12 -12 -10 -9 -9 -7 -6 -5 -5 -4
1 0 -0 -1 -1 -1 -1 -2 -2 -3 -4 -4 -5 -5 -6 -7 -7 -8 -9 -10 -10 -11 -11 -12 -12 -13 -13 -13 -13 -13 -13 -13 -13 -12 -12 -11 -11 -10 -8 -8 -7 -6 -5
1 0 -1 -1 -1 -1 -1 -2 -3 -3 -4 -5 -5 -6 -7 -8 -8 -9 -10 -10 -11 -11 -12 -12 -13 -13 -13 -13 -13 -13 -13 -13 -13 -13 -12 -11 -11 -10 -10 -9 -8 -7 -6
1 0 -1 -1 -1 -2 -2 -2 -3 -4 -4 -5 -6 -7 -7 -8 -9 -10 -11 -11 -12 -12 -12 -13 -13 -13 -13 -13 -14 -14 -14 -13 -13 -13 -12 -12 -11 -10 -10 -9 -9 -8 -7
0 -0 -1 -1 -1 -1 -2 -2 -3 -4 -5 -5 -6 -7 -8 -9 -10 -11 -12 -12 -12 -12 -12 -13 -13 -13 -13 -13 -14 -14 -14 -13 -13 -12 -12 -11 -11 -10 -10 -9 -9 -8 -7
0 -0 -1 -2 -2 -2 -2 -3 -4 -4 -5 -6 -7 -7 -9 -10 -11 -11 -12 -12 -13 -13 -13 -13 -13 -13 -13 -13 -14 -14 -13 -13 -13 -12 -11 -11 -10 -10 -9 -9 -9 -8 -7
-0 -1 -2 -2 -2 -2 -3 -4 -4 -5 -5 -6 -7 -8 -9 -10 -11 -12 -12 -12 -12 -12 -12 -13 -13 -13 -13 -13 -13 -13 -13 -13 -12 -11 -11 -10 -10 -9 -9 -9 -9 -8 -8
-0 -1 -2 -2 -2 -3 -4 -4 -5 -5 -6 -6 -7 -8 -9 -10 -11 -12 -12 -12 -12 -12 -12 -12 -12 -13 -13 -13 -13 -13 -12 -12 -11 -11 -10 -10 -9 -9 -9 -8 -8 -8 -8
-1 -1 -2 -2 -2 -3 -4 -4 -5 -5 -6 -6 -7 -8 -9 -10 -11 -12 -12 -12 -12 -12 -12 -12 -12 -12 -12 -12 -12 -12 -11 -11 -11 -10 -10 -9 -9 -9 -8 -8 -8 -8 -8
-1 -1 -2 -2 -3 -3 -4 -4 -5 -5 -6 -6 -7 -8 -10 -10 -11 -12 -12 -12 -12 -12 -11 -11 -11 -11 -11 -11 -11 -11 -11 -10 -10 -10 -9 -9 -9 -9 -8 -8 -8 -8 -8
-1 -1 -2 -2 -3 -4 -4 -5 -5 -5 -6 -7 -7 -8 -9 -10 -11 -12 -12 -12 -12 -12 -11 -11 -11 -10 -10 -10 -10 -10 -10 -10 -10 -10 -9 -9 -9 -9 -9 -8 -8 -8 -8
-1 -2 -2 -3 -3 -4 -4 -5 -5 -5 -6 -7 -7 -8 -10 -10 -11 -12 -12 -12 -12 -12 -11 -11 -11 -10 -10 -10 -10 -10 -10 -10 -10 -10 -10 -10 -9 -9 -9 -9 -9 -9 -8
-1 -2 -2 -3 -3 -4 -4 -5 -5 -5 -6 -7 -7 -8 -9 -10 -11 -11 -12 -12 -12 -12 -12 -11 -11 -10 -10 -10 -10 -10 -10 -10 -10 -10 -10 -10 -10 -10 -10 -9 -9 -9 -9
-1 -2 -2 -3 -3 -4 -4 -4 -5 -5 -6 -7 -8 -8 -9 -10 -11 -11 -12 -12 -12 -12 -12 -12 -11 -11 -10 -10 -11 -11 -11 -11 -11 -11 -11 -10 -10 -10 -10 -10 -10 -10 -9
-1 -2 -2 -3 -3 -4 -4 -4 -5 -5 -6 -7 -7 -8 -9 -10 -11 -11 -12 -12 -12 -12 -12 -12 -12 -11 -11 -10 -11 -12 -12 -12 -12 -12 -12 -11 -11 -11 -10 -10 -10 -10 -10
-1 -2 -2 -3 -3 -4 -4 -5 -5 -5 -6 -7 -7 -8 -9 -10 -10 -11 -12 -12 -12 -13 -13 -13 -12 -12 -12 -11 -11 -12 -12 -12 -12 -12 -12 -12 -12 -11 -11 -11 -10 -10 -10
-1 -2 -2 -3 -3 -4 -4 -5 -5 -5 -6 -7 -7 -8 -9 -9 -10 -11 -11 -12 -12 -13 -13 -13 -13 -13 -12 -12 -11 -12 -12 -12 -13 -13 -13 -13 -12 -12 -12 -11 -11 -11 -10
-1 -2 -2 -3 -3 -4 -4 -5 -5 -5 -6 -7 -8 -8 -9 -9 -10 -10 -11 -11 -12 -13 -13 -13 -13 -13 -13 -12 -12 -12 -13 -13 -13 -13 -13 -13 -13 -12 -12 -12 -12 -12 -11
-1 -2 -2 -3 -3 -4 -4 -5 -5 -5 -6 -7 -7 -8 -9 -9 -10 -10 -11 -11 -11 -12 -12 -12 -13 -13 -13 -13 -12 -12 -13 -13 -13 -14 -14 -14 -13 -13 -13 -13 -13 -12 -11
-1 -1 -2 -2 -3 -4 -4 -4 -5 -5 -6 -7 -7 -8 -8 -9 -9 -10 -10 -10 -11 -11 -12 -12 -12 -12 -12 -12 -12 -12 -12 -13 -13 -14 -14 -14 -14 -14 -14 -13 -13 -12 -11
-1 -1 -2 -2 -3 -3 -4 -4 -5 -5 -6 -6 -7 -7 -8 -9 -9 -10 -10 -10 -10 -11 -12 -12 -12 -12 -12 -12 -12 -12 -13 -13 -13 -14 -14 -14 -14 -14 -13 -14 -13 -12 -12
-1 -1 -2 -2 -3 -3 -4 -4 -5 -5 -5 -6 -6 -7 -7 -8 -8 -9 -10 -10 -10 -11 -11 -12 -12 -12 -11 -11 -11 -12 -12 -13 -13 -13 -13 -14 -14 -14 -14 -13 -13 -13 -13
-1 -1 -2 -2 -3 -3 -4 -4 -5 -5 -5 -6 -6 -6 -7 -7 -7 -8 -9 -10 -10 -11 -11 -11 -11 -12 -11 -11 -11 -11 -12 -12 -13 -13 -13 -14 -14 -14 -14 -14 -14 -13 -13
-1 -1 -2 -2 -3 -3 -4 -4 -4 -5 -5 -5 -6 -6 -6 -6 -7 -7 -7 -8 -9 -10 -11 -11 -11 -11 -11 -11 -11 -11 -12 -12 -13 -13 -13 -14 -14 -14 -14 -14 -14 -14 -14
Wind_Speed
5 5 3 1 4 5 6 6 7 9 12 7 8 8 9 8 12 15 19 21 21 21 20 16 16 15 9 10 10 11 12 10 11 12 14 13 12 9 6 7 7 6 9
5 5 3 1 3 5 6 7 8 8 11 9 9 7 8 7 12 15 18 19 21 22 19 18 15 15 9 10 10 11 10 11 9 10 11 8 6 5 10 8 6 6 8
8 6 3 2 4 5 7 8 8 8 11 14 12 12 6 4 6 8 8 18 22 21 21 20 18 16 9 9 10 10 11 12 10 6 6 6 6 12 6 6 5 8 9
6 4 3 2 4 5 6 7 8 8 11 14 10 11 10 11 11 9 10 19 21 20 20 20 19 16 13 10 11 10 10 11 11 9 7 9 10 8 7 5 6 8 10
7 5 2 1 4 5 6 7 7 7 10 12 9 9 9 8 10 9 10 10 16 19 20 21 19 16 14 11 11 12 10 9 10 10 10 11 10 10 10 13 10 9 7
6 4 2 3 4 5 5 6 8 8 8 10 9 9 11 11 14 14 12 11 10 14 18 21 19 18 15 12 12 10 11 10 11 10 9 10 9 9 9 12 15 13 10
6 4 1 3 5 6 7 7 9 9 9 9 9 10 10 9 12 13 13 14 13 13 13 19 17 17 17 17 15 11 11 10 11 10 10 10 10 10 11 12 13 14 11
6 4 1 2 4 6 7 8 9 9 9 10 10 9 8 8 9 12 12 13 12 13 19 21 21 21 20 19 14 11 11 10 10 12 11 10 10 10 10 10 12 13 9
7 5 2 1 3 5 6 8 9 9 10 10 10 9 8 10 11 11 11 10 13 18 21 22 20 20 19 17 12 10 11 10 11 11 11 10 10 10 10 10 10 10 12
7 5 2 1 3 4 5 7 8 8 9 9 9 11 10 11 12 11 13 13 16 20 19 18 18 18 17 15 12 11 10 10 10 9 11 11 9 9 9 9 9 9 10
8 5 2 1 3 5 6 7 8 8 8 9 9 10 10 11 12 10 12 13 15 18 17 18 19 19 17 13 11 10 11 11 11 10 10 11 11 9 8 8 8 8 9
7 5 2 1 3 5 6 7 7 8 8 8 9 10 10 10 11 12 12 16 15 18 18 18 18 19 17 13 11 11 11 10 11 11 10 10 9 9 8 7 7 7 8
7 4 2 1 3 5 6 7 7 7 8 8 9 10 10 11 12 12 12 15 14 15 18 17 18 18 16 13 12 11 11 11 10 11 11 11 10 10 9 8 7 7 8
7 5 3 2 4 5 6 7 7 7 7 8 8 9 10 11 11 11 12 13 14 13 15 17 17 17 15 11 11 12 11 12 12 12 12 12 12 12 10 9 8 8 8
7 7 4 3 3 5 6 6 7 7 7 8 8 9 10 10 10 11 11 12 12 14 14 16 17 17 15 11 10 11 13 12 13 13 13 13 18 21 16 13 11 10 8
9 7 6 4 4 5 5 6 6 7 7 7 8 9 10 10 11 11 11 12 12 13 13 14 16 17 16 23 25 17 11 12 13 14 14 14 14 19 21 22 20 17 12
8 8 7 6 5 5 5 5 6 6 7 7 8 9 9 10 10 11 11 12 11 11 12 13 14 15 19 26 24 25 13 11 11 12 13 14 17 18 9 17 20 17 20
10 9 7 6 5 4 4 4 5 5 6 7 8 8 8 9 10 10 10 10 8 10 9 11 13 14 19 27 23 23 13 9 11 11 12 13 14 17 14 13 13 11 12
9 8 7 6 4 4 3 4 5 5 6 7 8 8 8 9 9 9 9 8 8 8 9 10 11 12 17 25 23 19 8 10 11 11 14 15 11 24 24 15 14 12 11
8 8 7 6 5 4 2 2 4 5 6 7 8 8 7 8 8 8 8 6 7 8 10 11 10 11 12 21 24 18 7 9 10 10 13 20 22 25 25 14 13 15 13
8 8 7 6 6 4 2 3 4 5 6 7 7 7 7 8 8 7 6 8 9 10 9 10 10 9 12 18 22 21 7 8 10 11 11 13 26 25 25 21 15 19 16
9 8 7 7 5 4 4 4 5 6 6 6 7 8 8 8 8 8 8 8 8 9 9 8 9 8 9 14 17 20 17 13 8 9 10 13 25 24 25 20 23 24 19
10 8 8 7 5 5 5 5 5 5 6 6 7 8 8 7 7 7 8 8 7 7 8 7 8 8 8 11 17 16 16 17 8 7 17 20 23 21 17 23 26 20 14
10 8 8 7 7 6 6 6 5 5 5 7 7 7 7 8 8 7 7 7 8 8 8 7 8 9 9 9 8 5 6 11 9 6 12 18 19 17 18 18 16 13 13
9 9 9 8 8 6 6 5 5 4 5 6 7 7 7 7 8 8 6 8 7 10 11 7 7 9 9 13 19 12 7 6 6 6 5 7 8 10 11 11 12 12 13
10 9 9 9 8 7 6 6 5 4 4 6 6 6 6 7 7 8 9 13 13 17 16 16 15 12 16 20 20 19 18 16 15 8 5 6 7 8 9 10 11 11 12
Wind_Direction
173 163 174 323 328 314 315 326 350 351 353 347 341 332 329 322 320 325 329 326 326 327 323 322 322 320 319 319 317 321 319 321 323 319 318 302 283 279 304 301 301 316 338
180 198 205 273 308 309 323 344 353 344 345 338 326 314 313 307 314 322 323 326 327 326 326 323 320 316 315 314 316 318 318 322 330 322 322 316 311 342 325 305 309 339 344
196 204 218 270 301 319 337 349 341 337 338 338 334 332 315 308 325 330 323 329 328 325 322 320 318 315 312 311 310 308 317 318 317 312 307 309 315 325 286 294 324 338 332
179 186 205 286 321 333 341 343 337 333 339 343 342 342 346 337 332 329 324 327 327 324 323 321 317 314 312 306 306 315 306 307 311 309 283 287 296 297 308 309 315 315 319
173 168 164 344 353 347 342 339 336 334 340 343 340 337 332 324 324 324 321 322 324 323 322 321 317 313 311 303 299 301 296 299 297 298 296 293 288 274 286 300 310 312 304
158 145 102 25 350 342 341 343 345 340 337 338 334 330 325 326 329 331 329 329 324 321 318 318 314 310 307 302 300 294 292 293 290 289 288 289 288 291 293 295 304 308 310
155 149 74 349 335 340 348 349 347 338 333 331 328 323 320 321 324 327 328 328 326 324 317 316 312 309 305 303 300 296 294 289 286 285 286 283 279 284 286 289 297 302 305
155 152 147 316 327 345 350 347 340 332 329 328 327 319 319 326 324 322 323 321 320 317 314 316 313 310 307 305 300 297 291 290 286 287 285 282 279 280 279 282 292 299 301
161 162 180 300 342 350 345 337 330 326 325 325 326 324 328 327 324 322 320 320 320 322 321 318 315 313 310 307 301 296 292 289 286 284 283 281 281 280 279 279 281 289 300
166 169 197 302 345 345 333 331 323 318 316 322 328 337 328 325 325 324 325 326 324 324 323 324 323 320 316 312 303 299 297 297 293 289 286 287 284 283 280 277 277 277 283
175 183 205 309 348 341 333 325 319 317 319 324 327 328 325 326 327 327 327 327 326 328 328 328 330 330 327 320 313 306 304 302 303 304 299 299 298 295 289 285 284 281 279
169 177 185 351 345 333 325 319 316 317 319 324 328 328 327 328 329 330 329 331 330 331 332 333 336 338 342 339 332 325 323 317 317 319 319 321 326 325 314 306 302 298 290
169 176 184 320 320 315 313 311 313 317 320 328 329 328 329 330 330 329 330 333 334 334 337 339 341 341 343 349 353 351 351 351 347 346 345 340 339 339 334 326 320 310 307
176 183 203 256 289 299 301 305 311 318 328 333 330 329 328 328 327 328 332 334 336 338 340 341 343 344 345 354 8 10 7 6 3 1 355 350 352 354 345 344 342 330 323
189 194 203 231 268 288 298 304 312 322 331 332 332 329 326 326 328 332 334 335 339 343 341 343 345 346 346 359 30 25 16 10 6 2 357 353 2 5 5 1 358 349 341
195 195 200 215 247 270 289 306 313 320 328 330 327 326 330 331 333 334 336 339 340 339 341 343 344 346 347 3 25 29 16 9 6 2 357 353 354 2 7 3 4 2 354
190 192 199 211 231 250 273 293 304 314 327 327 324 326 327 330 331 336 339 339 335 336 338 338 342 344 344 4 22 22 17 5 360 356 354 356 353 358 5 360 0 359 359
183 187 189 200 217 235 266 287 305 320 327 325 322 321 324 325 326 330 334 331 326 331 332 330 336 340 344 357 17 22 12 1 356 352 349 347 346 351 14 0 352 353 355
175 179 183 190 201 228 260 295 314 324 327 323 318 316 316 320 323 327 326 321 322 323 326 329 332 337 338 349 9 26 5 4 353 352 355 353 351 358 12 6 353 355 355
160 167 171 180 202 221 242 283 307 317 316 311 308 308 310 317 315 316 316 315 319 323 329 329 329 327 327 343 359 22 20 8 358 352 352 355 7 6 10 10 358 0 358
160 164 172 189 205 209 217 265 289 294 296 303 305 307 310 311 306 314 311 315 323 325 321 318 320 318 329 341 349 5 25 21 5 358 354 354 8 9 10 13 8 6 5
162 168 178 197 205 203 208 254 274 282 297 305 307 308 308 310 322 317 311 313 316 317 313 311 317 320 322 335 340 356 4 15 14 354 350 358 9 11 11 12 11 10 8
172 174 182 194 210 210 209 242 264 291 307 311 308 306 308 306 309 308 307 311 310 312 315 315 323 325 324 326 333 346 355 360 10 357 1 6 9 10 7 9 12 10 6
177 174 179 195 212 215 220 232 263 288 302 306 306 307 307 308 311 314 312 311 310 310 311 321 324 320 317 315 317 316 332 347 354 360 358 3 5 10 9 10 8 7 7
177 179 188 199 209 210 224 238 252 275 295 302 304 309 312 307 310 316 310 312 305 317 334 330 319 323 321 328 345 352 341 336 341 2 359 356 358 3 5 6 7 6 6
175 181 193 203 205 205 223 236 243 253 279 302 311 312 310 314 319 318 320 325 331 333 339 342 343 335 335 344 353 352 353 351 352 5 351 346 350 356 359 1 2 4 5
Height
1609 1608 1607 1604 1601 1597 1593 1589 1584 1579 1573 1567 1560 1553 1547 1542 1536 1531 1525 1519 1513 1506 1500 1494 1489 1483 1478 1473 1468 1463 1458 1453 1448 1440 1432 1427 1425 1423 1422 1422 1421 1420 1419
1606 1606 1605 1602 1598 1594 1590 1586 1581 1576 1570 1564 1557 1551 1544 1538 1532 1527 1521 1515 1508 1502 1496 1490 1484 1479 1473 1469 1464 1460 1454 1449 1447 1442 1434 1426 1420 1419 1418 1418 1417 1416 1414
1604 1604 1602 1599 1596 1592 1588 1584 1579 1573 1567 1561 1554 1547 1541 1534 1528 1521 1515 1509 1503 1497 1491 1485 1480 1474 1469 1464 1460 1456 1451 1446 1443 1442 1440 1434 1425 1417 1412 1413 1412 1411 1409
1601 1601 1599 1597 1593 1590 1586 1581 1576 1571 1565 1558 1551 1544 1537 1530 1524 1517 1510 1505 1499 1493 1487 1481 1475 1470 1465 1460 1455 1451 1448 1443 1439 1437 1435 1434 1429 1424 1413 1408 1408 1407 1405
1598 1598 1596 1594 1591 1587 1583 1579 1574 1569 1562 1556 1549 1542 1535 1528 1521 1514 1507 1501 1495 1489 1484 1477 1471 1466 1460 1455 1450 1446 1442 1439 1435 1432 1430 1427 1425 1422 1418 1408 1403 1402 1401
1595 1595 1594 1591 1588 1585 1581 1577 1572 1566 1560 1554 1547 1540 1533 1525 1518 1510 1503 1497 1491 1485 1479 1473 1467 1461 1455 1450 1444 1440 1436 1433 1430 1427 1425 1423 1421 1418 1415 1409 1402 1398 1396
1592 1592 1591 1589 1586 1583 1579 1574 1569 1563 1557 1551 1544 1538 1531 1523 1516 1509 1502 1495 1488 1482 1475 1469 1463 1456 1450 1444 1439 1434 1430 1427 1424 1421 1419 1417 1416 1414 1411 1407 1402 1397 1393
1589 1589 1588 1586 1583 1580 1576 1571 1566 1560 1554 1548 1542 1536 1529 1522 1515 1509 1502 1495 1488 1481 1473 1466 1458 1451 1444 1438 1433 1429 1425 1421 1419 1416 1415 1413 1411 1409 1407 1405 1401 1395 1390
1586 1586 1585 1583 1581 1578 1573 1569 1563 1558 1552 1546 1540 1533 1527 1520 1514 1508 1501 1494 1487 1479 1471 1463 1454 1446 1439 1433 1428 1423 1420 1416 1414 1412 1410 1409 1407 1405 1403 1400 1398 1396 1389
1583 1583 1582 1581 1578 1575 1571 1567 1561 1556 1550 1545 1538 1532 1526 1519 1513 1506 1499 1493 1486 1478 1469 1460 1451 1442 1435 1428 1423 1419 1416 1413 1411 1409 1407 1405 1403 1401 1399 1396 1394 1392 1389
1580 1580 1579 1578 1576 1573 1569 1564 1559 1554 1548 1543 1537 1530 1524 1518 1511 1505 1498 1491 1484 1477 1469 1460 1450 1441 1433 1427 1422 1418 1414 1412 1409 1407 1405 1403 1400 1398 1395 1392 1390 1387 1385
1577 1577 1577 1575 1573 1570 1566 1562 1557 1552 1547 1541 1535 1529 1523 1516 1510 1503 1497 1491 1484 1477 1469 1461 1452 1443 1436 1430 1424 1419 1415 1412 1409 1407 1404 1402 1399 1396 1392 1389 1386 1383 1380
1573 1574 1574 1572 1570 1567 1564 1560 1555 1551 1545 1540 1534 1528 1521 1515 1509 1502 1496 1490 1484 1477 1470 1462 1454 1447 1440 1434 1428 1423 1419 1415 1411 1408 1405 1402 1398 1395 1391 1387 1383 1380 1376
1570 1571 1570 1569 1567 1565 1562 1558 1554 1549 1544 1539 1533 1527 1520 1514 1508 1502 1497 1490 1484 1478 1471 1464 1457 1450 1444 1438 1432 1427 1422 1418 1414 1410 1406 1402 1399 1395 1390 1386 1381 1377 1373
1566 1567 1567 1566 1565 1562 1560 1556 1552 1548 1543 1537 1532 1526 1520 1514 1508 1502 1497 1491 1485 1479 1473 1466 1459 1453 1446 1441 1435 1430 1425 1420 1416 1412 1407 1403 1400 1396 1391 1386 1380 1375 1371
1562 1563 1563 1563 1562 1560 1557 1554 1550 1546 1541 1536 1531 1525 1520 1514 1508 1502 1497 1491 1485 1480 1474 1467 1461 1455 1449 1445 1439 1433 1427 1422 1417 1412 1408 1404 1399 1395 1389 1385 1380 1375 1371
1558 1560 1560 1560 1559 1557 1555 1552 1548 1545 1540 1536 1531 1525 1519 1514 1508 1502 1497 1491 1486 1480 1474 1469 1463 1457 1451 1447 1441 1435 1429 1424 1419 1414 1409 1404 1400 1395 1389 1383 1378 1373 1368
1555 1556 1557 1556 1556 1555 1553 1550 1547 1543 1539 1535 1530 1525 1519 1514 1508 1502 1497 1491 1486 1481 1475 1470 1465 1459 1453 1449 1443 1437 1431 1425 1420 1415 1410 1406 1401 1396 1390 1383 1377 1372 1367
1551 1553 1553 1553 1553 1552 1550 1548 1546 1542 1538 1534 1529 1524 1519 1514 1508 1502 1496 1491 1486 1481 1476 1471 1466 1460 1454 1450 1445 1438 1433 1427 1422 1417 1412 1407 1402 1397 1391 1383 1377 1372 1367
1547 1549 1550 1550 1550 1550 1548 1546 1544 1541 1537 1532 1528 1523 1519 1514 1508 1503 1497 1491 1486 1481 1476 1471 1466 1461 1456 1451 1446 1441 1435 1429 1423 1418 1413 1408 1404 1398 1392 1385 1379 1373 1367
1543 1545 1546 1547 1547 1547 1546 1544 1542 1539 1535 1531 1527 1523 1518 1514 1509 1503 1498 1492 1487 1481 1476 1471 1466 1461 1457 1451 1447 1443 1437 1431 1426 1420 1415 1410 1406 1399 1393 1387 1382 1377 1370
1539 1542 1543 1544 1544 1544 1543 1542 1540 1537 1534 1530 1526 1522 1518 1513 1508 1503 1498 1492 1487 1481 1475 1470 1465 1461 1456 1452 1447 1444 1439 1434 1428 1423 1418 1413 1408 1401 1395 1389 1384 1378 1371
1536 1538 1540 1541 1541 1541 1541 1540 1538 1536 1533 1529 1526 1522 1517 1513 1508 1502 1497 1491 1486 1480 1475 1470 1465 1460 1456 1451 1447 1443 1439 1435 1430 1425 1421 1415 1410 1403 1396 1392 1386 1379 1373
1532 1535 1536 1537 1538 1538 1538 1537 1536 1534 1531 1528 1525 1521 1516 1512 1507 1502 1496 1490 1485 1479 1475 1470 1465 1460 1455 1450 1446 1442 1438 1434 1430 1425 1421 1416 1411 1406 1400 1394 1388 1382 1377
1528 1531 1533 1534 1535 1535 1535 1535 1534 1532 1530 1527 1524 1520 1516 1511 1506 1501 1496 1490 1485 1481 1477 1471 1466 1461 1455 1452 1448 1444 1438 1434 1430 1426 1421 1416 1411 1406 1402 1397 1392 1387 1382
1524 1527 1529 1530 1531 1532 1532 1532 1531 1530 1528 1525 1522 1518 1514 1510 1505 1499 1495 1491 1486 1480 1476 1472 1468 1462 1458 1453 1448 1443 1439 1434 1430 1425 1421 1417 1413 1409 1405 1401 1396 1391 1386